Find Starlink 6327

NORAD ID: 56522 Int'l Des: 2023-065 Owner: SPXS Country: US Constellation: starlink operational
LEOCIRCULAR

現在のビュー

3D地球を読み込み中...

About Starlink 6327

Starlink 6327 (NORAD 56522) is a starlink constellation satellite (v1.5) launched May 14, 2023 by SPXS of US. It operates in LEO, CIRCULAR orbit with a mass of 305.00 kg.

次回通過

Passes for default location (London). Set your location on the main map for personalized predictions.

高度履歴

Loading altitude history...

軌道要素

1 56522U 23065V 26264.16549725 .00000062 00000-0 11769-4 0 9991
2 56522 43.0043 188.6556 0000949 270.9752 89.0991 15.27576281186497
Epoch: Sep 21, 2026 • Age: 12 hours

現在のステータス

高度 495.1 km
遠地点 / 近地点 N/A
速度 7.62 km/s
衛星直下点 -41.61°S, 128.93°W
打ち上げ日 May 14, 2023
運用期間 3.3 years
タイプ internet

技術仕様

分類 Payload
質量 305.00 kg
乾燥質量 290.00 kg
長さ 0.20 m
スパン 9.00 m
形状 ? Box + pan
製造者 SPXS
バスタイプ Starlink
フェーズステータス In Orbit
所有者/国 SPXS/US

Most Searched